FW5619 Weather Reports


Display with metric or nautical units.
time (UTC)temp
F
wind
direction
speed
MPH
gust
MPH
rain 1hr
in
rain 24hr
in
rain mn
in
humidity
%
barometer
mb
20260901052009 72 152 1.0 6.0 0.00 0.00 0.00 92 1019.5
20260901051508 72 152 2.0 7.0 0.00 0.00 0.00 91 1019.5
20260901051008 72 152 3.0 9.0 0.00 0.00 0.00 91 1019.5
20260901050508 72 153 4.0 10.0 0.00 0.00 0.00 91 1019.5
20260901050007 72 152 6.0 10.0 0.00 0.00 0.00 90 1019.6
20260901045505 72 150 5.0 10.0 0.00 0.00 0.00 90 1019.7
20260901045006 72 149 4.0 9.0 0.00 0.00 0.00 90 1019.8
20260901044507 72 148 3.0 8.0 0.00 0.00 0.00 91 1019.7
20260901044006 72 148 3.0 8.0 0.00 0.00 0.00 90 1019.7
20260901043505 72 148 3.0 8.0 0.00 0.00 0.00 90 1019.7
20260901043004 72 147 4.0 7.0 0.00 0.00 0.00 90 1019.7
20260901042502 72 146 3.0 5.0 0.00 0.00 0.00 90 1019.7
20260901042002 72 146 1.0 5.0 0.00 0.00 0.00 90 1019.7
20260901041502 72 146 3.0 5.0 0.00 0.00 0.00 90 1019.8
20260901041003 72 147 1.0 7.0 0.00 0.00 0.00 89 1019.8
20260901040501 72 146 3.0 7.0 0.00 0.00 0.00 89 1019.8
20260901040109 72 146 0.0 5.0 0.00 0.00 0.00 89 1019.9
20260901035603 72 146 1.0 5.0 0.00 0.00 0.00 89 1019.9
20260901035059 72 146 0.0 3.0 0.00 0.00 0.00 90 1019.8
20260901034608 72 146 0.0 3.0 0.00 0.00 0.00 90 1019.7
20260901034101 72 146 0.0 3.0 0.00 0.00 0.00 90 1019.9
20260901033558 72 146 1.0 4.0 0.00 0.00 0.00 90 1019.9
20260901033058 72 146 1.0 3.0 0.00 0.00 0.00 90 1019.9
20260901032559 72 146 1.0 3.0 0.00 0.00 0.00 89 1019.9
20260901032055 72 146 0.0 2.0 0.00 0.00 0.00 89 1020.0
20260901031556 72 146 0.0 3.0 0.00 0.00 0.00 89 1020.1
20260901031055 72 146 0.0 3.0 0.00 0.00 0.00 89 1020.1
20260901030555 72 146 0.0 2.0 0.00 0.00 0.00 90 1020.2
20260901030054 72 146 0.0 2.0 0.00 0.00 0.00 89 1020.3
20260901025554 72 146 1.0 4.0 0.00 0.01 0.00 89 1020.4
20260901025057 72 146 2.0 4.0 0.00 0.01 0.00 89 1020.3
20260901024554 72 146 2.0 4.0 0.00 0.01 0.00 89 1020.3
20260901024053 72 146 1.0 3.0 0.00 0.01 0.00 89 1020.4
20260901023553 72 146 2.0 3.0 0.00 0.01 0.00 90 1020.3
20260901023053 72 146 1.0 3.0 0.00 0.01 0.00 90 1020.3
20260901022553 72 146 1.0 3.0 0.00 0.01 0.00 90 1020.3
20260901022053 72 146 1.0 4.0 0.00 0.01 0.00 90 1020.4
20260901021554 72 146 2.0 4.0 0.00 0.01 0.00 90 1020.5
20260901021053 72 146 1.0 3.0 0.00 0.01 0.00 90 1020.5
20260901020553 72 146 1.0 3.0 0.00 0.01 0.00 90 1020.5
20260901020055 72 146 0.0 3.0 0.00 0.01 0.00 90 1020.5
20260901015552 72 146 0.0 3.0 0.00 0.01 0.00 90 1020.6
20260901015052 72 146 0.0 3.0 0.00 0.01 0.00 89 1020.6
20260901014552 72 146 0.0 5.0 0.00 0.01 0.00 89 1020.5
20260901014052 72 146 2.0 5.0 0.00 0.01 0.00 89 1020.5
20260901013552 72 146 0.0 3.0 0.00 0.01 0.00 89 1020.6
20260901013059 72 147 1.0 4.0 0.00 0.01 0.00 89 1020.7
20260901012552 72 146 2.0 5.0 0.00 0.01 0.00 89 1020.7
20260901012051 72 146 2.0 5.0 0.00 0.01 0.00 89 1020.6
20260901011552 72 146 2.0 4.0 0.00 0.01 0.00 89 1020.5
20260901011052 72 146 2.0 4.0 0.00 0.01 0.00 89 1020.6
20260901010550 72 146 2.0 4.0 0.00 0.01 0.00 89 1020.6
20260901010050 72 146 2.0 5.0 0.00 0.01 0.00 89 1020.5
20260901005550 72 146 3.0 7.0 0.00 0.01 0.00 89 1020.6
20260901005049 72 146 3.0 7.0 0.00 0.01 0.00 88 1020.6
20260901004553 72 146 3.0 5.0 0.00 0.01 0.00 88 1020.5
20260901004049 72 146 2.0 5.0 0.00 0.01 0.00 88 1020.5
20260901003550 72 146 2.0 7.0 0.00 0.01 0.00 88 1020.5
20260901003050 72 146 3.0 7.0 0.00 0.01 0.00 88 1020.5
20260901002549 72 146 3.0 7.0 0.00 0.01 0.00 88 1020.4
20260901002052 72 146 3.0 7.0 0.00 0.01 0.00 88 1020.4
20260901001548 72 146 3.0 7.0 0.00 0.01 0.00 89 1020.4
20260901001048 72 146 2.0 5.0 0.00 0.01 0.00 89 1020.4
20260901000548 72 146 2.0 5.0 0.00 0.01 0.00 89 1020.4
20260901000057 72 146 2.0 5.0 0.00 0.01 0.00 89 1020.4
20260831235548 72 146 3.0 7.0 0.00 0.01 0.00 89 1020.4
20260831235048 72 146 3.0 7.0 0.00 0.01 0.00 89 1020.3
20260831234548 72 146 2.0 8.0 0.00 0.01 0.00 89 1020.5
20260831234050 72 146 3.0 8.0 0.00 0.01 0.00 88 1020.5
20260831233548 72 147 3.0 8.0 0.00 0.01 0.00 88 1020.6
20260831233048 72 147 4.0 8.0 0.00 0.01 0.00 88 1020.6
20260831232551 72 147 3.0 7.0 0.00 0.01 0.00 88 1020.7
20260831232046 72 147 3.0 5.0 0.00 0.01 0.00 88 1020.7
20260831231548 72 147 3.0 5.0 0.00 0.01 0.00 87 1020.6
20260831231046 72 147 2.0 4.0 0.00 0.01 0.00 87 1020.7
20260831230546 72 147 3.0 4.0 0.00 0.01 0.00 87 1020.6
20260831230046 72 147 2.0 4.0 0.00 0.01 0.00 87 1020.6
20260831225545 72 147 2.0 4.0 0.00 0.01 0.00 87 1020.6
20260831225046 72 147 2.0 5.0 0.00 0.01 0.00 86 1020.6
20260831224546 72 147 2.0 4.0 0.00 0.01 0.00 86 1020.6
20260831224046 72 147 2.0 5.0 0.00 0.01 0.00 86 1020.5
20260831223548 72 147 2.0 5.0 0.00 0.01 0.00 86 1020.5
20260831223046 72 147 3.0 5.0 0.00 0.01 0.00 86 1020.6
20260831222545 72 147 2.0 5.0 0.00 0.01 0.00 86 1020.6
20260831222044 72 147 2.0 5.0 0.00 0.01 0.00 86 1020.6
20260831221646 72 147 1.0 5.0 0.00 0.01 0.00 86 1020.7
20260831221044 73 147 2.0 4.0 0.00 0.01 0.00 86 1020.6
20260831220544 73 147 1.0 7.0 0.00 0.01 0.00 85 1020.7
20260831220044 73 147 3.0 7.0 0.00 0.01 0.00 86 1020.6
20260831215543 73 147 2.0 5.0 0.00 0.01 0.00 86 1020.6
20260831215044 73 147 2.0 8.0 0.00 0.01 0.00 86 1020.7
20260831214543 72 147 3.0 8.0 0.00 0.01 0.00 86 1021.0
20260831214046 72 147 3.0 9.0 0.00 0.01 0.00 86 1021.1
20260831213543 72 147 4.0 9.0 0.00 0.01 0.00 86 1021.0
20260831213043 72 146 2.0 9.0 0.00 0.01 0.00 87 1021.0
20260831212543 72 145 2.0 8.0 0.00 0.01 0.00 88 1021.0
20260831212043 72 145 3.0 8.0 0.00 0.01 0.00 87 1020.9
20260831211546 72 145 4.0 8.0 0.00 0.01 0.00 87 1020.8
20260831211044 72 145 4.0 8.0 0.00 0.01 0.00 86 1020.8
20260831210541 72 145 4.0 10.0 0.00 0.01 0.00 86 1020.8
20260831210042 72 145 4.0 10.0 0.00 0.01 0.00 87 1020.8
20260831205544 72 145 5.0 10.0 0.00 0.01 0.00 87 1020.9
20260831205041 72 145 3.0 9.0 0.00 0.01 0.00 87 1020.9
20260831204541 72 145 4.0 8.0 0.00 0.01 0.00 87 1020.9
20260831204041 72 145 5.0 9.0 0.00 0.01 0.00 87 1020.9
20260831203541 72 144 5.0 10.0 0.00 0.01 0.00 86 1020.9
20260831203043 73 144 4.0 9.0 0.00 0.01 0.00 86 1021.2
20260831202540 72 144 4.0 9.0 0.00 0.01 0.00 86 1021.2
20260831202040 73 144 4.0 10.0 0.00 0.01 0.00 86 1021.2
20260831201541 72 144 4.0 10.0 0.00 0.01 0.00 85 1021.3
20260831201044 72 144 5.0 10.0 0.00 0.01 0.00 85 1021.3
20260831200540 72 144 5.0 10.0 0.00 0.01 0.00 85 1021.3
20260831200039 73 144 5.0 9.0 0.00 0.01 0.00 85 1021.1
20260831195540 73 144 5.0 12.0 0.00 0.01 0.00 84 1021.2
20260831195042 72 144 8.0 12.0 0.00 0.01 0.00 83 1021.1
20260831194556 73 144 6.0 12.0 0.00 0.01 0.00 84 1021.3
20260831194039 73 144 6.0 12.0 0.00 0.01 0.00 83 1021.2
20260831193538 73 144 7.0 11.0 0.00 0.01 0.00 82 1021.4
20260831193038 73 144 7.0 11.0 0.00 0.01 0.00 81 1021.4
20260831192540 74 142 6.0 10.0 0.00 0.01 0.00 80 1021.3
20260831192037 74 142 6.0 10.0 0.00 0.01 0.00 80 1021.5
20260831191537 74 141 5.0 9.0 0.00 0.01 0.00 82 1021.7
20260831191041 73 141 6.0 11.0 0.00 0.01 0.00 81 1021.6
20260831190538 74 140 7.0 11.0 0.00 0.01 0.00 80 1021.7
20260831190040 74 140 5.0 12.0 0.00 0.01 0.00 78 1021.8
20260831185638 74 138 7.0 12.0 0.00 0.01 0.00 79 1021.7
20260831185036 74 136 7.0 11.0 0.00 0.01 0.00 78 1021.6
20260831184537 75 133 7.0 13.0 0.00 0.01 0.00 77 1021.6
20260831184036 75 130 7.0 14.0 0.00 0.01 0.00 79 1021.8
20260831183536 75 134 7.0 15.0 0.00 0.01 0.00 77 1021.8
20260831183036 75 136 8.0 15.0 0.00 0.01 0.00 77 1021.8
20260831182539 75 117 8.0 16.0 0.00 0.01 0.00 75 1021.7
20260831182037 76 111 10.0 16.0 0.00 0.01 0.00 73 1021.8
20260831181534 76 108 10.0 14.0 0.00 0.01 0.00 75 1021.9
20260831181032 76 111 6.0 13.0 0.00 0.01 0.00 73 1022.0
20260831180532 75 111 7.0 13.0 0.00 0.01 0.00 73 1022.0
20260831180031 76 111 7.0 13.0 0.00 0.01 0.00 71 1022.1
20260831175531 76 110 8.0 13.0 0.00 0.01 0.00 72 1022.0
20260831175030 76 109 5.0 13.0 0.00 0.01 0.00 73 1021.9
20260831174533 75 109 7.0 12.0 0.00 0.01 0.00 74 1022.0
20260831174029 76 105 6.0 14.0 0.00 0.01 0.00 73 1022.0
20260831173530 75 107 7.0 14.0 0.00 0.01 0.00 74 1022.0
20260831173028 76 103 7.0 14.0 0.00 0.01 0.00 73 1022.0
20260831172529 75 103 7.0 12.0 0.00 0.01 0.00 72 1022.0
20260831172026 76 101 7.0 11.0 0.00 0.01 0.00 71 1022.2
20260831171527 75 101 6.0 13.0 0.00 0.01 0.00 73 1022.1
20260831171026 75 98 7.0 12.0 0.00 0.01 0.00 72 1022.1
20260831170526 75 97 7.0 12.0 0.00 0.01 0.00 72 1022.1
20260831170026 76 97 7.0 12.0 0.00 0.01 0.00 72 1022.1
20260831165527 76 90 7.0 11.0 0.00 0.01 0.00 73 1022.1
20260831165023 76 90 6.0 10.0 0.00 0.01 0.00 74 1022.1
20260831164524 75 89 3.0 9.0 0.00 0.01 0.00 75 1022.1
20260831164024 75 89 5.0 9.0 0.00 0.01 0.00 73 1022.1
20260831163521 75 89 4.0 10.0 0.00 0.01 0.00 76 1022.1
20260831163024 75 87 5.0 10.0 0.00 0.01 0.00 76 1022.1
20260831162523 75 86 5.0 9.0 0.00 0.01 0.00 75 1022.1
20260831162018 75 86 4.0 9.0 0.00 0.01 0.00 76 1022.1
20260831161527 74 86 5.0 10.0 0.00 0.01 0.00 77 1022.1
20260831161017 74 86 6.0 10.0 0.00 0.01 0.00 76 1022.2
20260831160515 75 84 5.0 9.0 0.00 0.01 0.00 76 1022.2
20260831160016 75 82 4.0 9.0 0.00 0.01 0.00 75 1022.2
20260831155513 75 86 5.0 12.0 0.00 0.01 0.00 76 1022.1
20260831155012 75 86 3.0 12.0 0.00 0.01 0.00 76 1022.1
20260831154512 74 77 5.0 11.0 0.00 0.01 0.00 76 1022.1
20260831154015 74 76 5.0 12.0 0.00 0.01 0.00 76 1022.2
20260831153511 74 76 8.0 12.0 0.00 0.01 0.00 74 1022.2
20260831153011 74 34 3.0 10.0 0.00 0.01 0.00 76 1022.2
20260831152511 74 34 4.0 10.0 0.00 0.01 0.00 75 1022.2
20260831152010 74 24 5.0 9.0 0.00 0.01 0.00 76 1022.3
20260831151510 74 17 5.0 9.0 0.00 0.01 0.00 75 1022.1
20260831151010 74 324 3.0 8.0 0.00 0.01 0.00 75 1022.3
20260831150508 74 324 0.0 5.0 0.00 0.01 0.00 77 1022.4
20260831150012 74 324 2.0 4.0 0.00 0.01 0.00 77 1022.4
20260831145508 74 324 1.0 5.0 0.00 0.01 0.00 77 1022.4
20260831145008 73 324 1.0 5.0 0.00 0.01 0.00 79 1022.5
20260831144507 73 324 1.0 5.0 0.00 0.01 0.00 78 1022.5
20260831144007 73 324 1.0 5.0 0.00 0.01 0.00 79 1022.4
20260831143509 73 324 0.0 5.0 0.00 0.01 0.00 79 1022.3
20260831143007 73 324 1.0 5.0 0.00 0.01 0.00 79 1022.3
20260831142507 72 324 2.0 5.0 0.00 0.01 0.00 79 1022.3
20260831142006 72 324 1.0 4.0 0.00 0.01 0.00 80 1022.4
20260831141506 72 324 2.0 5.0 0.00 0.01 0.00 79 1022.4
20260831141005 72 324 2.0 5.0 0.00 0.01 0.00 80 1022.4
20260831140508 72 324 2.0 5.0 0.00 0.01 0.00 79 1022.2
20260831140004 72 324 1.0 6.0 0.00 0.01 0.00 80 1022.3
20260831135504 72 324 2.0 6.0 0.00 0.01 0.00 80 1022.1
20260831135004 72 324 2.0 4.0 0.00 0.01 0.00 80 1022.2
20260831134504 73 324 0.0 4.0 0.00 0.01 0.00 80 1022.1
20260831134003 72 324 1.0 4.0 0.00 0.01 0.00 80 1022.2
20260831133507 72 324 0.0 4.0 0.00 0.01 0.00 80 1022.1
20260831133004 72 324 0.0 5.0 0.00 0.01 0.00 81 1022.2
20260831132503 72 324 1.0 3.0 0.00 0.01 0.00 82 1022.2
20260831132002 71 324 1.0 6.0 0.00 0.01 0.00 82 1022.1
20260831131503 71 324 1.0 6.0 0.00 0.01 0.00 82 1022.2
20260831131003 71 324 0.0 4.0 0.00 0.01 0.00 83 1022.1
20260831130502 71 324 2.0 4.0 0.00 0.01 0.00 82 1022.0
20260831130001 71 324 1.0 4.0 0.00 0.01 0.00 83 1022.0
20260831125602 71 324 1.0 5.0 0.00 0.01 0.00 83 1022.0
20260831125101 71 324 2.0 5.0 0.00 0.01 0.00 82 1021.9
20260831124605 71 324 0.0 5.0 0.00 0.01 0.00 83 1021.9
20260831124100 71 324 1.0 5.0 0.00 0.01 0.00 83 1021.7
20260831123559 71 324 1.0 5.0 0.00 0.01 0.00 83 1021.7
20260831123102 71 324 1.0 5.0 0.00 0.01 0.00 83 1021.7
20260831122559 71 324 1.0 5.0 0.00 0.01 0.00 83 1021.8
20260831122058 71 324 1.0 8.0 0.00 0.01 0.00 83 1021.9
20260831121604 71 324 0.0 5.0 0.00 0.01 0.00 84 1022.1
20260831121059 71 324 0.0 5.0 0.00 0.01 0.00 84 1022.0
20260831120557 71 324 0.0 4.0 0.00 0.01 0.00 84 1021.9
20260831120057 71 324 0.0 4.0 0.00 0.01 0.00 84 1021.9
20260831115557 70 324 0.0 5.0 0.00 0.01 0.00 85 1021.8
20260831115056 70 324 0.0 4.0 0.00 0.01 0.00 85 1021.8
20260831114556 70 324 1.0 6.0 0.00 0.01 0.00 85 1021.7
20260831114056 70 324 2.0 6.0 0.00 0.01 0.00 85 1021.7
20260831113556 70 324 0.0 5.0 0.00 0.01 0.00 85 1021.8
20260831113056 70 324 1.0 5.0 0.00 0.01 0.00 85 1021.9
20260831112558 70 324 1.0 6.0 0.00 0.01 0.00 85 1021.8
20260831112055 70 324 2.0 6.0 0.00 0.01 0.00 85 1021.8
20260831111558 70 324 2.0 5.0 0.00 0.01 0.00 85 1021.8
20260831111054 70 324 0.0 9.0 0.00 0.01 0.00 85 1021.6
20260831110554 70 324 2.0 9.0 0.00 0.01 0.00 84 1021.5
20260831110052 70 324 1.0 6.0 0.00 0.01 0.00 84 1021.4
20260831105555 70 324 2.0 6.0 0.00 0.01 0.00 84 1021.4
20260831105053 70 324 0.0 5.0 0.00 0.01 0.00 85 1021.3
20260831104551 70 324 1.0 6.0 0.00 0.01 0.00 84 1021.3
20260831104051 70 324 1.0 6.0 0.00 0.01 0.00 85 1021.2
20260831103550 70 324 2.0 8.0 0.00 0.01 0.00 85 1021.2
20260831103049 70 324 2.0 8.0 0.00 0.01 0.00 85 1021.0
20260831102549 70 324 1.0 5.0 0.00 0.01 0.00 85 1021.0
20260831102048 71 324 1.0 5.0 0.00 0.01 0.00 85 1020.9
20260831101549 71 324 2.0 6.0 0.00 0.01 0.00 86 1020.9
20260831101047 71 324 0.0 8.0 0.00 0.01 0.00 86 1020.8
20260831100548 71 324 1.0 6.0 0.00 0.01 0.00 86 1020.9
20260831100046 71 324 2.0 9.0 0.00 0.01 0.00 86 1020.8
20260831095546 71 324 2.0 9.0 0.00 0.01 0.00 86 1020.9
20260831095045 71 305 1.0 9.0 0.00 0.01 0.00 86 1020.7
20260831094545 71 305 3.0 9.0 0.00 0.01 0.00 86 1020.7
20260831094045 71 269 0.0 6.0 0.00 0.01 0.00 86 1020.6
20260831093545 71 269 3.0 7.0 0.00 0.01 0.00 87 1020.7
20260831093045 71 269 2.0 7.0 0.00 0.01 0.00 87 1020.7
20260831092544 71 269 0.0 4.0 0.00 0.01 0.00 87 1020.7
20260831092044 71 269 0.0 4.0 0.00 0.01 0.00 87 1020.6
20260831091549 71 269 1.0 4.0 0.00 0.01 0.00 87 1020.6
20260831091044 71 269 1.0 4.0 0.00 0.01 0.00 87 1020.5
20260831090543 71 269 0.0 4.0 0.00 0.01 0.00 87 1020.5
20260831090043 71 269 1.0 4.0 0.00 0.01 0.00 87 1020.6
20260831085543 71 269 0.0 3.0 0.00 0.01 0.00 86 1020.4
20260831085047 71 269 0.0 3.0 0.00 0.01 0.00 86 1020.4
20260831084542 71 269 0.0 3.0 0.00 0.01 0.00 86 1020.4
20260831084042 71 269 1.0 4.0 0.00 0.01 0.00 86 1020.6
20260831083542 71 269 2.0 6.0 0.00 0.01 0.00 86 1020.5
20260831083043 71 269 0.0 6.0 0.00 0.01 0.00 86 1020.5
20260831082544 71 269 0.0 3.0 0.00 0.01 0.00 85 1020.5
20260831082041 72 269 0.0 6.0 0.00 0.01 0.00 85 1020.5
20260831081542 72 269 1.0 7.0 0.00 0.01 0.00 85 1020.5
20260831081041 72 269 3.0 7.0 0.00 0.01 0.00 85 1020.5
20260831080542 72 269 1.0 4.0 0.00 0.01 0.00 85 1020.5
20260831080040 72 269 0.0 4.0 0.00 0.01 0.00 85 1020.5
20260831075539 72 269 1.0 6.0 0.00 0.01 0.00 85 1020.5
20260831075040 72 269 2.0 6.0 0.00 0.01 0.00 85 1020.4
20260831074540 72 269 2.0 6.0 0.00 0.01 0.00 85 1020.4
20260831074041 72 269 1.0 4.0 0.00 0.01 0.00 86 1020.4
20260831073540 72 269 1.0 4.0 0.00 0.01 0.00 86 1020.5
20260831073039 72 269 1.0 4.0 0.00 0.01 0.00 87 1020.6
20260831072540 72 269 1.0 4.0 0.00 0.01 0.00 87 1020.6
20260831072038 72 269 1.0 4.0 0.00 0.01 0.00 87 1020.6
20260831071537 72 269 0.0 3.0 0.00 0.01 0.00 88 1020.6
20260831071039 72 269 0.0 3.0 0.00 0.01 0.00 88 1020.6
20260831070537 72 269 1.0 3.0 0.00 0.01 0.00 88 1020.6
20260831070037 72 269 1.0 3.0 0.00 0.01 0.00 87 1020.5
20260831065536 72 269 0.0 3.0 0.00 0.01 0.00 87 1020.5
20260831065036 72 269 0.0 3.0 0.00 0.01 0.00 87 1020.6
20260831064537 72 269 1.0 3.0 0.00 0.01 0.00 87 1020.5
20260831064035 72 269 0.0 2.0 0.00 0.01 0.00 87 1020.5
20260831063535 72 269 0.0 1.0 0.00 0.01 0.00 87 1020.6
20260831063035 72 269 0.0 3.0 0.00 0.01 0.00 87 1020.6
20260831062534 72 269 0.0 6.0 0.00 0.01 0.00 87 1020.5
20260831062034 73 269 2.0 6.0 0.00 0.01 0.00 87 1020.5
20260831061534 73 269 1.0 6.0 0.00 0.01 0.00 87 1020.7
20260831061034 73 269 1.0 4.0 0.00 0.01 0.00 87 1020.6
20260831060534 73 269 1.0 4.0 0.00 0.01 0.00 88 1020.5
20260831060033 73 269 0.0 6.0 0.00 0.01 0.00 88 1020.6
20260831055532 73 269 0.0 3.0 0.00 0.01 0.00 88 1020.6
20260831055032 73 269 0.0 3.0 0.00 0.01 0.00 87 1020.5
20260831054536 73 269 0.0 2.0 0.00 0.01 0.00 87 1020.5
20260831054033 73 269 0.0 3.0 0.00 0.01 0.00 86 1020.5
20260831053530 73 269 0.0 4.0 0.00 0.01 0.00 86 1020.4
20260831053034 74 269 0.0 4.0 0.00 0.01 0.00 87 1020.5
20260831052528 74 269 1.0 4.0 0.00 0.01 0.00 88 1020.6